Estación de Coihueco

Ultimos registro cada 15 minutos 95
Estación Fecha / Hora Temperatura Humedad Lluvia Velocidad Dirección Radiación Presion
95 Coihueco 01-09-2026 23:30 11,1 87,4 0 0 240 0,6 993,8
94 Coihueco 01-09-2026 23:15 10,9 89,5 0 0 240 0,6 993,8
93 Coihueco 01-09-2026 23:00 11,4 86,4 0 0 240 0,6 993,9
92 Coihueco 01-09-2026 22:45 11,3 86,1 0 0 240 0,6 993,9
91 Coihueco 01-09-2026 22:30 11,7 85,2 0 0 240 0,6 994,2
90 Coihueco 01-09-2026 22:15 12 83,4 0 1,5 239 0,6 994,3
89 Coihueco 01-09-2026 22:00 12,3 81,5 0 1,5 246 0,6 994,4
88 Coihueco 01-09-2026 21:45 12 83,3 0 0 219 0,6 994,2
87 Coihueco 01-09-2026 21:30 11,6 83,5 0 0 219 0,6 994,2
86 Coihueco 01-09-2026 21:15 12,1 82,3 0 0 219 0,6 994,3
85 Coihueco 01-09-2026 21:00 12,5 77,5 0 0 218 0,6 994,5
84 Coihueco 01-09-2026 20:45 12,8 76,6 0 0,5 236 0,6 994,5
83 Coihueco 01-09-2026 20:30 13,2 76,5 0 1 236 0,6 994,5
82 Coihueco 01-09-2026 20:15 13,5 77 0 1,5 240 0,6 994,4
81 Coihueco 01-09-2026 20:00 13,9 77,5 0 1 240 0,6 994,3
80 Coihueco 01-09-2026 19:45 13,3 88,3 0 0 233 0,6 994
79 Coihueco 01-09-2026 19:30 13,8 86,6 0 0 233 0,6 993,8
78 Coihueco 01-09-2026 19:15 14,2 85,5 0 0 233 0,6 993,7
77 Coihueco 01-09-2026 19:00 14,4 81,2 0 0 233 0,6 993,5
76 Coihueco 01-09-2026 18:45 14,6 83,7 0 0 233 0,6 993,4
75 Coihueco 01-09-2026 18:30 14,6 84 0 0 233 3,1 993,1
74 Coihueco 01-09-2026 18:15 15,1 82,8 0 0 233 9,4 993,2
73 Coihueco 01-09-2026 18:00 16,3 75,9 0 0 233 31,9 993,1
72 Coihueco 01-09-2026 17:45 16,6 78,1 0 0 234 50,6 993,1
71 Coihueco 01-09-2026 17:30 16,7 70,9 0 0 234 50,6 993,2
70 Coihueco 01-09-2026 17:15 16,7 71,8 0 0 234 81,9 993,3
69 Coihueco 01-09-2026 17:00 16,9 66,9 0 0,5 233 73,1 993,5
68 Coihueco 01-09-2026 16:45 17,4 68 0 0,5 229 139,4 993,4
67 Coihueco 01-09-2026 16:30 17,4 63,9 0 0,5 244 129,4 993,4
66 Coihueco 01-09-2026 16:15 17,5 64,8 0 1,5 246 136,9 993,4
65 Coihueco 01-09-2026 16:00 17,5 66,7 0 1,5 244 171,9 993,3
64 Coihueco 01-09-2026 15:45 18,1 60,5 0 0,5 268 243,1 993,1
63 Coihueco 01-09-2026 15:30 18 58,4 0 0,5 286 278,1 993,1
62 Coihueco 01-09-2026 15:15 19,2 61,4 0 0,5 281 318,1 992,9
61 Coihueco 01-09-2026 15:00 18,8 59,6 0 0,5 282 415,6 993,2
60 Coihueco 01-09-2026 14:45 18,9 58,1 0 0,5 300 391,9 993,4
59 Coihueco 01-09-2026 14:30 19 57,7 0 0,5 310 539,4 993,5
58 Coihueco 01-09-2026 14:15 19,2 58,2 0 0,5 293 548,1 993,5
57 Coihueco 01-09-2026 14:00 18,7 57 0 0 239 300,6 993,7
56 Coihueco 01-09-2026 13:45 19,1 55,5 0 0 314 599,4 993,8
55 Coihueco 01-09-2026 13:30 18,5 57,2 0 0,5 277 506,9 994,1
54 Coihueco 01-09-2026 13:15 19,2 56,7 0 0,5 253 729,4 994,5
53 Coihueco 01-09-2026 13:00 18,7 58,6 0 0,5 250 681,9 994,8
52 Coihueco 01-09-2026 12:45 18,5 58,4 0 0 288 531,9 995
51 Coihueco 01-09-2026 12:30 17,8 62 0 1 254 635,6 995,4
50 Coihueco 01-09-2026 12:15 17,5 60,9 0 0,5 257 610,6 995,7
49 Coihueco 01-09-2026 12:00 17,5 61,6 0 0,5 260 656,9 996
48 Coihueco 01-09-2026 11:45 17 61,1 0 0,5 274 640,6 996,3
47 Coihueco 01-09-2026 11:30 17 67,2 0 0,5 265 618,1 996,1
46 Coihueco 01-09-2026 11:15 16,1 69,4 0 0,5 260 595,6 996,1
45 Coihueco 01-09-2026 11:00 15,3 72,8 0 1 254 571,9 996,4
44 Coihueco 01-09-2026 10:45 15,2 73,1 0 0,5 256 555,6 996,4
43 Coihueco 01-09-2026 10:30 14,6 72,5 0 1 258 580,6 996,5
42 Coihueco 01-09-2026 10:15 14,3 75,5 0 1,5 263 451,9 996,9
41 Coihueco 01-09-2026 10:00 13,9 75,6 0 1 270 460,6 997
40 Coihueco 01-09-2026 09:45 13,7 75,8 0 0,5 246 486,9 996,9
39 Coihueco 01-09-2026 09:30 13,3 77 0 0,5 222 410,6 996,9
38 Coihueco 01-09-2026 09:15 13 78,2 0 0 122 181,9 997
37 Coihueco 01-09-2026 09:00 14,3 72,5 0 0 104 369,4 996,9
36 Coihueco 01-09-2026 08:45 12 81,8 0 0 104 301,9 996,8
35 Coihueco 01-09-2026 08:30 11,4 85,1 0 0 104 245,6 996,8
34 Coihueco 01-09-2026 08:15 10 92,8 0 0 104 133,1 996,7
33 Coihueco 01-09-2026 08:00 8,5 96,3 0 0 104 78,1 996,8
32 Coihueco 01-09-2026 07:45 7,7 97,5 0 0 104 38,1 996,8
31 Coihueco 01-09-2026 07:30 7 98,4 0 0 104 16,9 996,6
30 Coihueco 01-09-2026 07:15 6,9 98,2 0 0 104 3,1 996,8
29 Coihueco 01-09-2026 07:00 6,8 99,1 0 0 104 0,6 996,9
28 Coihueco 01-09-2026 06:45 7 98,8 0 0 104 0,6 996,8
27 Coihueco 01-09-2026 06:30 6,7 99,8 0 0 104 0,6 996,8
26 Coihueco 01-09-2026 06:15 6,4 99 0 0 104 0,6 996,7
25 Coihueco 01-09-2026 06:00 6,3 99 0 0 104 0,6 996,5
24 Coihueco 01-09-2026 05:45 6,5 97,9 0 0 104 0,6 996,5
23 Coihueco 01-09-2026 05:30 6,9 97,2 0 0 104 0,6 996,5
22 Coihueco 01-09-2026 05:15 7,2 96,3 0 0 104 0,6 996,3
21 Coihueco 01-09-2026 05:00 7,7 95,2 0 0 104 0,6 996,4
20 Coihueco 01-09-2026 04:45 8,2 93,8 0 0 104 0,6 996,4
19 Coihueco 01-09-2026 04:30 8,1 95,1 0 0 104 0,6 996,4
18 Coihueco 01-09-2026 04:15 7,8 97,3 0 0 104 0,6 996,3
17 Coihueco 01-09-2026 04:00 7,8 96,6 0 0 104 0,6 996,4
16 Coihueco 01-09-2026 03:45 7,7 96 0 0 104 0,6 996,3
15 Coihueco 01-09-2026 03:30 7,8 95,5 0 0 104 0,6 996,3
14 Coihueco 01-09-2026 03:15 8 94,1 0 0 104 0,6 996,3
13 Coihueco 01-09-2026 03:00 8,1 93,2 0 0 104 0,6 996,5
12 Coihueco 01-09-2026 02:45 8,1 94 0 0 104 0,6 996,8
11 Coihueco 01-09-2026 02:30 8,2 93,4 0 0 104 0,6 996,9
10 Coihueco 01-09-2026 02:15 8,2 93,2 0 0 104 0,6 997
9 Coihueco 01-09-2026 02:00 8,9 89,7 0 0 111 0,6 997,2
8 Coihueco 01-09-2026 01:45 8,2 93,3 0 0 136 0,6 997,3
7 Coihueco 01-09-2026 01:30 7,9 94,1 0 0 136 0,6 997,5
6 Coihueco 01-09-2026 01:15 8,1 92,5 0 0 136 0,6 997,3
5 Coihueco 01-09-2026 01:00 8,8 89,4 0 0 136 0,6 997,3
4 Coihueco 01-09-2026 00:45 9,1 87,6 0 0 143 0,6 997,4
3 Coihueco 01-09-2026 00:30 8,7 90,4 0 0 150 0,6 997,7
2 Coihueco 01-09-2026 00:15 8,3 93,2 0 0 150 0,6 997,8
1 Coihueco 01-09-2026 00:00 8,1 92,3 0 0 150 0,6 997,9